Home > Weather > Québec > Past weeks

Flag for Canada Weather for the Past 2 Weeks in Québec, Quebec, Canada

Now
41 °F

Passing clouds.


Feels Like: 35 °F
Forecast: 38 / 57 °F
Wind: 10 mph from Northeast

Location: Quebec Weather Station

Current Time: May 3, 2016 at 10:54:28 PM

Latest Report: May 3, 2016 at 10:00 PM


Visibility: 15 mi

Pressure: 29.93 "Hg

Humidity: 87%

Dew Point: 37 °F

Location of QuébecLocation

Historic Weather in Québec — Graph

°F

Québec Temperature Yesterday

Maximum temperature yesterday: 48 °F (at 12:00 AM)
Minimum temperature yesterday: 41 °F (at 5:00 AM)
Average temperature yesterday: 44 °F

High & Low Weather Summary for the Past Weeks

 TemperatureHumidityPressure
High68 °F (Apr 21, 4:00 PM)100% (Apr 22, 4:46 PM)30.34 "Hg (Apr 22, 4:46 PM)
Low23 °F (Apr 26, 5:00 AM)13% (Apr 30, 5:00 PM)29.75 "Hg (Apr 26, 5:00 PM)
Average41 °F48%30.04 "Hg
* Reported Apr 18 9:00 PM — May 3 9:00 PM, Québec, Weather by CustomWeather, © 2016

Note: Actual official high and low records may vary slightly from our data, if they occured in-between our weather recording intervals... More about our weather records

Advertising

Québec Weather History for the Previous 24 Hours

Scroll right to see more
 ConditionsComfort  
Time TempWeatherWind HumidityBarometerVisibility
9:00 PM
Tue, May 3
43 °FPassing clouds.9 mph81%29.93 "Hg15 mi
8:00 PM45 °FPassing clouds.7 mph76%29.90 "Hg30 mi
7:00 PM46 °FScattered clouds.9 mph71%29.90 "Hg30 mi
6:00 PM48 °FPartly sunny.12 mph66%29.90 "Hg30 mi
5:00 PM48 °FPartly sunny.9 mph62%29.91 "Hg30 mi
4:00 PM50 °FPartly sunny.10 mph58%29.90 "Hg25 mi
3:00 PM50 °FMore clouds than sun.12 mph58%29.91 "Hg30 mi
2:00 PM48 °FMostly cloudy.9 mph66%29.91 "Hg30 mi
1:00 PM48 °FPartly sunny.6 mph66%29.93 "Hg30 mi
12:00 PM46 °FPartly sunny.7 mph71%29.94 "Hg30 mi
11:00 AM46 °FPartly sunny.8 mph71%29.96 "Hg30 mi
10:00 AM43 °FPartly sunny.6 mph81%29.96 "Hg30 mi
9:00 AM43 °FMostly cloudy.7 mph81%29.96 "Hg30 mi
8:00 AM43 °FBroken clouds.3 mph87%29.95 "Hg30 mi
7:00 AM41 °FMore clouds than sun.6 mph87%29.96 "Hg30 mi
6:48 AM41 °FMore clouds than sun.5 mph93%29.96 "Hg30 mi
6:00 AM39 °FSprinkles. Low clouds.6 mph93%29.96 "Hg10 mi
5:00 AM39 °FSprinkles. Fog.3 mph93%29.95 "Hg4 mi
4:00 AM39 °FSprinkles. Fog.2 mph93%29.96 "Hg4 mi
3:00 AM39 °FSprinkles. Mostly cloudy.6 mph93%29.96 "Hg8 mi
2:00 AM39 °FMostly cloudy.7 mph93%29.97 "Hg10 mi
1:00 AM41 °FMostly cloudy.8 mph87%29.97 "Hg10 mi
12:00 AM41 °FMostly cloudy.10 mph87%29.96 "Hg10 mi
11:00 PM
Mon, May 2
41 °FSprinkles. Mostly cloudy.9 mph87%29.99 "Hg10 mi
10:00 PM41 °FSprinkles. Mostly cloudy.9 mph93%30.01 "Hg10 mi
Weather by CustomWeather, © 2016

See weather overviewHow to use our weather pages